This is the latest recevied weather packets stored in our database for station/object OK1TBM-13. If no packets are shown the sender has not sent any weather packets the latest 10 day(s).
| Time | Temp. | Humidity | Pressure | Rain* | Wind** | Luminosity | Snow |
|---|---|---|---|---|---|---|---|
| 1787916901 | 30.56° C | 38% | 1011.5 hPa | 0 mm | - | 684 W/m² | - |
| 1787916601 | 30.56° C | 39% | 1011.5 hPa | 0 mm | - | 690 W/m² | - |
| 1787916301 | 30° C | 40% | 1011.5 hPa | 0 mm | - | 674 W/m² | - |
| 1787916000 | 29.44° C | 40% | 1011.5 hPa | 0 mm | - | 671 W/m² | - |
| 1787915707 | 29.44° C | 40% | 1011.5 hPa | 0 mm | - | 682 W/m² | - |
| 1787915108 | 29.44° C | 41% | 1011.5 hPa | 0 mm | - | 638 W/m² | - |
| 1787914801 | 30° C | 40% | 1011.5 hPa | 0 mm | - | 680 W/m² | - |
| 1787914200 | 29.44° C | 41% | 1011.5 hPa | 0 mm | - | 686 W/m² | - |
| 1787913301 | 28.33° C | 42% | 1012.2 hPa | 0 mm | - | 684 W/m² | - |
| 1787913001 | 28.89° C | 41% | 1012.2 hPa | 0 mm | - | 679 W/m² | - |
| 1787912701 | 28.89° C | 41% | 1012.5 hPa | 0 mm | - | 678 W/m² | - |
| 1787912401 | 29.44° C | 41% | 1012.5 hPa | 0 mm | - | 660 W/m² | - |
| 1787912101 | 28.33° C | 42% | 1012.5 hPa | 0 mm | - | 662 W/m² | - |
| 1787911501 | 27.78° C | 43% | 1012.5 hPa | 0 mm | - | 611 W/m² | - |
| 1787911201 | 27.78° C | 43% | 1013.2 hPa | 0 mm | - | 655 W/m² | - |
| 1787910901 | 27.22° C | 43% | 1013.2 hPa | 0 mm | - | 649 W/m² | - |
| 1787910601 | 26.67° C | 44% | 1013.2 hPa | 0 mm | - | 633 W/m² | - |
| 1787910301 | 27.22° C | 44% | 1013.2 hPa | 0 mm | - | 604 W/m² | - |
| 1787910000 | 26.67° C | 44% | 1013.2 hPa | 0 mm | - | 632 W/m² | - |
| 1787909402 | 26.11° C | 45% | 1013.6 hPa | 0 mm | - | 551 W/m² | - |
| 1787909100 | 26.11° C | 45% | 1013.6 hPa | 0 mm | - | 411 W/m² | - |
| 1787908800 | 26.11° C | 46% | 1013.6 hPa | 0 mm | - | 428 W/m² | - |
| 1787908501 | 25.56° C | 46% | 1013.6 hPa | 0 mm | - | 453 W/m² | - |
| 1787908202 | 26.11° C | 45% | 1013.6 hPa | 0 mm | - | 354 W/m² | - |
| 1787907902 | 26.11° C | 45% | 1013.6 hPa | 0 mm | - | 468 W/m² | - |
* Rain latest hour (hover to see other rain measurements)
** Current wind speed in m/s (hover to see current wind gust speed)